Location: Nebraska Star Party
(42.6000°N, 100.8833°W)
Time: 09:43:04
(UTC-05:00)

Amateur Radio Satellites - All Passes

Search period start: 26 September 2017 09:13
Search period end: 27 September 2017 09:13
Location: Nebraska Star Party, 42.6000°N, 100.8833°W

Satellite Date Start Highest point End Downlink Frequencies (MHz)
Time Altitude Azimuth
XW-2B 26 Sep 09:14:15 09:15:55 13° 296° (WNW) 09:17:35 145.730 - 145.750
AAUSAT CUBESAT 2 26 Sep 09:18:34 09:22:23 36° 97° (E) 09:26:10 437.432
NUDT-PHONESAT 26 Sep 09:25:17 09:26:49 12° 296° (WNW) 09:28:23 437.300
TIGRISAT 26 Sep 09:26:57 09:28:42 12° 60° (ENE) 09:30:28 435.000
HO-68 26 Sep 09:27:50 09:35:02 78° 288° (WNW) 09:42:13 435.675
Oscar 11 26 Sep 09:35:18 09:38:42 22° 94° (E) 09:42:03 .
CUTE 1.7 + AOD 2 26 Sep 09:38:48 09:42:40 35° 290° (WNW) 09:46:29 437.475
AO-73 26 Sep 09:39:12 09:43:26 36° 97° (E) 09:47:35 145.935
ZACube-1 26 Sep 09:43:46 09:48:11 45° 98° (E) 09:52:33 437.345
STRAND 1 26 Sep 09:55:02 09:57:17 13° 271° (W) 09:59:33 437.568
FO-29 26 Sep 09:55:38 10:01:14 82° 75° (ENE) 10:06:29 435.910
CUTE-I 26 Sep 10:06:38 10:08:23 12° 304° (NW) 10:10:09 437.470
DELFI C3 26 Sep 10:20:39 10:22:47 14° 91° (E) 10:24:54 145.870
XW-2A 26 Sep 10:25:10 10:27:35 18° 292° (WNW) 10:29:59 145.665 - 145.685
RS-15 26 Sep 10:37:29 10:47:05 25° 356° (N) 10:56:29 29.354- 29.394
UNISAT 6 26 Sep 10:37:34 10:41:54 70° 75° (ENE) 10:46:22 437.425
UWE-3 26 Sep 10:39:33 10:43:32 28° 292° (WNW) 10:47:30 435.000/436.395/437.385
CUBEBUG 2 26 Sep 10:39:36 10:42:51 19° 296° (WNW) 10:46:06 437.445
PRISM 26 Sep 10:40:10 10:43:58 38° 70° (ENE) 10:47:45 437.425
SEEDS 26 Sep 10:42:04 10:44:01 13° 297° (WNW) 10:45:57 437.485
Max Valier Satellite 26 Sep 10:45:44 10:48:32 20° 94° (E) 10:51:19 145.860
AAUSAT CUBESAT 2 26 Sep 10:54:39 10:57:35 19° 294° (WNW) 11:00:29 437.432
TIGRISAT 26 Sep 11:00:23 11:04:44 73° 259° (WSW) 11:09:13 435.000
O/OREOS (USA 219) 26 Sep 11:01:17 11:01:58 10° 47° (NE) 11:02:39 437.305
AIST 2D 26 Sep 11:10:20 11:12:24 15° 66° (ENE) 11:14:28 435.315
Oscar 11 26 Sep 11:10:58 11:14:53 34° 290° (WNW) 11:18:47 .
AO-73 26 Sep 11:15:47 11:19:26 24° 293° (WNW) 11:23:03 145.935
HO-68 26 Sep 11:17:26 11:21:38 17° 308° (NW) 11:25:51 435.675
ZACube-1 26 Sep 11:20:49 11:24:07 20° 295° (WNW) 11:27:23 437.345
EO-88 26 Sep 11:38:51 11:42:30 67° 101° (E) 11:46:06 145.990 - 145.960
NANOSAT C BR1 26 Sep 11:42:00 11:44:25 15° 63° (ENE) 11:46:50 145.865
FO-29 26 Sep 11:44:59 11:46:56 12° 270° (W) 11:48:51 435.910
YUBILEINY 26 Sep 11:47:06 11:53:26 23° 79° (E) 11:59:45 435.215
DELFI C3 26 Sep 11:54:02 11:57:45 43° 288° (WNW) 12:01:27 145.870
M-CUBED/EXP-1 PRIME 26 Sep 12:01:07 12:02:25 11° 58° (ENE) 12:03:42 437.505
DUCHIFAT 1 26 Sep 12:07:32 12:10:55 24° 67° (ENE) 12:14:19 145.980
ESTCUBE 1 26 Sep 12:11:44 12:14:27 16° 91° (E) 12:17:09 437.505/2401.250
PRISM 26 Sep 12:16:37 12:19:23 17° 267° (W) 12:22:08 437.425
UNISAT 6 26 Sep 12:17:52 12:19:08 11° 272° (W) 12:20:24 437.425
Max Valier Satellite 26 Sep 12:19:09 12:22:22 28° 290° (WNW) 12:25:34 145.860
LO-87 26 Sep 12:25:17 12:28:29 29° 96° (E) 12:31:41 145.935 - 145.965
POLYITAN 1 26 Sep 12:25:17 12:29:20 47° 72° (ENE) 12:33:25 437.675
EO-79 26 Sep 12:28:38 12:32:42 52° 73° (ENE) 12:36:49 145.935-145.965
BUGSAT 1 26 Sep 12:32:24 12:34:00 12° 62° (ENE) 12:35:36 437.445
O/OREOS (USA 219) 26 Sep 12:37:35 12:42:13 75° 66° (ENE) 12:46:49 437.305
AIST 2D 26 Sep 12:42:00 12:45:17 35° 262° (W) 12:48:35 435.315
QB50P2 26 Sep 12:43:15 12:47:27 85° 75° (ENE) 12:51:43 145.880/145.840
RS-15 26 Sep 12:53:37 13:04:32 36° 30° (NNE) 13:14:56 29.354- 29.394
Oscar 19 26 Sep 13:05:43 13:09:13 18° 61° (ENE) 13:12:42 437.125/150
SO-50 26 Sep 13:06:07 13:07:04 11° 107° (ESE) 13:08:03 436.795
NO-84 26 Sep 13:07:43 13:11:39 64° 137° (SE) 13:15:17 435.350 FM
NANOSAT C BR1 26 Sep 13:15:36 13:19:41 51° 260° (W) 13:23:49 145.865
Gurwin Techsat 1B 26 Sep 13:16:13 13:19:23 16° 60° (ENE) 13:22:33 435.225
M-CUBED/EXP-1 PRIME 26 Sep 13:32:12 13:36:24 72° 252° (WSW) 13:40:19 437.505
PCSat 26 Sep 13:36:52 13:37:49 10° 101° (E) 13:38:45 145.827
SPROUT 26 Sep 13:37:11 13:41:03 31° 97° (E) 13:44:52 437.525
YUBILEINY 26 Sep 13:40:33 13:49:15 76° 279° (W) 13:57:59 435.215
DUCHIFAT 1 26 Sep 13:42:46 13:46:26 29° 264° (W) 13:50:09 145.980
ESTCUBE 1 26 Sep 13:47:11 13:51:33 51° 288° (WNW) 13:55:52 437.505/2401.250
LO-87 26 Sep 13:59:11 14:01:41 18° 293° (WNW) 14:04:12 145.935 - 145.965
VELOX 1 26 Sep 14:02:04 14:06:14 41° 99° (E) 14:10:24 145.980
POLYITAN 1 26 Sep 14:02:55 14:05:22 15° 269° (W) 14:07:51 437.675
BUGSAT 1 26 Sep 14:04:50 14:08:48 62° 259° (W) 14:12:51 437.445
EO-79 26 Sep 14:06:35 14:08:46 14° 269° (W) 14:10:57 145.935-145.965
O/OREOS (USA 219) 26 Sep 14:19:38 14:20:56 11° 263° (W) 14:22:14 437.305
AO-7 26 Sep 14:39:45 14:46:24 28° 54° (NE) 14:53:01 .
SO-50 26 Sep 14:42:20 14:46:49 84° 303° (WNW) 14:51:21 436.795
Oscar 19 26 Sep 14:42:52 14:48:01 62° 259° (W) 14:53:12 437.125/150
50 SAT 26 Sep 14:43:23 14:46:29 36° 99° (E) 14:49:33 437.505
NO-84 26 Sep 14:46:13 14:49:18 23° 333° (NNW) 14:52:11 435.350 FM
UKube-1 26 Sep 14:47:27 14:50:47 21° 94° (E) 14:54:04 .
Gurwin Techsat 1B 26 Sep 14:53:24 14:58:41 74° 256° (WSW) 15:04:02 435.225
DX 1 26 Sep 15:00:32 15:04:44 46° 100° (E) 15:08:54 434.975-435.025
RS-15 26 Sep 15:06:38 15:18:43 89° 238° (WSW) 15:30:05 29.354- 29.394
SPROUT 26 Sep 15:13:20 15:16:46 24° 293° (WNW) 15:20:13 437.525
PCSat 26 Sep 15:14:51 15:20:16 81° 118° (ESE) 15:25:43 145.827
VELOX 1 26 Sep 15:39:15 15:42:23 20° 295° (WNW) 15:45:31 145.980
YUBILEINY 26 Sep 15:42:46 15:47:43 16° 302° (WNW) 15:52:43 435.215
ITAMSAT 1 26 Sep 15:55:03 15:59:55 44° 69° (ENE) 16:04:49 435.822/435.867
50 SAT 26 Sep 16:17:10 16:18:37 12° 295° (WNW) 16:20:05 437.505
ITUPSAT 1 26 Sep 16:18:36 16:22:35 25° 95° (E) 16:26:32 437.325
UKube-1 26 Sep 16:22:57 16:26:52 35° 291° (WNW) 16:30:46 .
SO-50 26 Sep 16:25:28 16:27:59 15° 324° (NW) 16:30:31 436.795
NO-84 26 Sep 16:26:53 16:27:41 11° 353° (N) 16:28:29 435.350 FM
AO-7 26 Sep 16:30:04 16:38:24 75° 253° (WSW) 16:46:45 .
DX 1 26 Sep 16:37:40 16:40:33 18° 296° (WNW) 16:43:26 434.975-435.025
BEESAT 26 Sep 16:52:29 16:57:13 56° 101° (E) 17:01:55 436.000
MOZHAYETS 4 26 Sep 16:54:47 16:59:24 62° 101° (E) 17:03:58
PCSat 26 Sep 17:00:28 17:04:19 19° 318° (NW) 17:08:12 145.827
RS-15 26 Sep 17:20:58 17:29:23 24° 261° (W) 17:37:32 29.354- 29.394
CUBESAT XI-V 26 Sep 17:30:16 17:34:23 31° 96° (E) 17:38:26 437.345
ITAMSAT 1 26 Sep 17:35:28 17:39:33 23° 266° (W) 17:43:40 435.822/435.867
ITUPSAT 1 26 Sep 17:56:03 18:00:27 36° 292° (WNW) 18:04:50 437.325
DOVE 4 26 Sep 18:01:46 18:06:06 69° 75° (ENE) 18:10:17 437.250
NO-84 26 Sep 18:04:36 18:06:19 13° 16° (NNE) 18:07:57 435.350 FM
CUTE-I 26 Sep 18:07:50 18:12:05 25° 64° (ENE) 18:16:21 437.470
XW-2D 26 Sep 18:08:15 18:11:10 21° 68° (ENE) 18:14:06 145.860 - 145.880
HO-68 26 Sep 18:12:29 18:16:57 18° 53° (NE) 18:21:25 435.675
XW-2F 26 Sep 18:17:40 18:20:48 24° 69° (ENE) 18:23:55 145.980 - 146.000
XW-2B 26 Sep 18:20:18 18:23:35 27° 70° (ENE) 18:26:52 145.730 - 145.750
KKS-1 26 Sep 18:27:14 18:31:27 40° 99° (E) 18:35:37 437.445
AO-7 26 Sep 18:28:24 18:32:28 14° 272° (W) 18:36:33 .
NUDT-PHONESAT 26 Sep 18:29:34 18:32:39 25° 69° (ENE) 18:35:46 437.300
BEESAT 26 Sep 18:31:22 18:34:32 18° 298° (WNW) 18:37:41 436.000
MOZHAYETS 4 26 Sep 18:33:23 18:36:01 15° 298° (WNW) 18:38:40
XW-2C 26 Sep 18:41:20 18:45:03 49° 74° (ENE) 18:48:48 145.795 - 145.815
STARS 26 Sep 18:42:17 18:45:53 24° 95° (E) 18:49:27 437.465
CUTE 1.7 + AOD 2 26 Sep 18:57:17 19:00:02 17° 65° (ENE) 19:02:48 437.475
LilacSat-2 26 Sep 18:57:38 19:01:30 85° 77° (ENE) 19:05:25 437.200
KAITUO 1B 26 Sep 19:02:51 19:06:37 67° 75° (ENE) 19:10:23 145.475/437.950
CUBESAT XI-V 26 Sep 19:07:45 19:11:38 27° 293° (WNW) 19:15:30 437.345
Tancredo 1 26 Sep 19:11:29 19:14:04 48° 142° (SE) 19:16:39 437.200
BEESAT 3 26 Sep 19:17:02 19:20:21 26° 114° (ESE) 19:23:44 437.485
XW-2A 26 Sep 19:25:52 19:26:41 11° 64° (ENE) 19:27:30 145.665 - 145.685
BEESAT 2 26 Sep 19:34:32 19:36:04 12° 108° (ESE) 19:37:37 435.950
ISS 26 Sep 19:35:13 19:36:45 13° 131° (SE) 19:38:17 437.550
NO-84 26 Sep 19:41:15 19:44:19 55° 37° (NE) 19:47:12 435.350 FM
XW-2D 26 Sep 19:41:49 19:45:11 28° 264° (W) 19:48:34 145.860 - 145.880
DOVE 4 26 Sep 19:43:56 19:44:12 10° 270° (W) 19:44:29 437.250
CUTE-I 26 Sep 19:46:48 19:51:51 45° 261° (W) 19:56:57 437.470
XW-2F 26 Sep 19:51:40 19:54:49 24° 265° (W) 19:58:00 145.980 - 146.000
XW-2B 26 Sep 19:54:44 19:57:44 22° 266° (W) 20:00:46 145.730 - 145.750
HO-68 26 Sep 19:56:29 20:03:38 84° 73° (ENE) 20:10:51 435.675
SEEDS 26 Sep 19:56:34 20:00:35 43° 72° (ENE) 20:04:37 437.485
CUBEBUG 2 26 Sep 20:00:38 20:04:42 43° 72° (ENE) 20:08:56 437.445
UWE-3 26 Sep 20:00:44 20:04:21 26° 67° (ENE) 20:08:04 435.000/436.395/437.385
NUDT-PHONESAT 26 Sep 20:03:28 20:06:27 22° 265° (W) 20:09:29 437.300
KKS-1 26 Sep 20:04:25 20:07:43 21° 295° (WNW) 20:11:01 437.445
nSIGHT-1 26 Sep 20:06:23 20:09:11 28° 137° (SE) 20:12:00 .
AO-85 26 Sep 20:08:46 20:12:04 26° 114° (ESE) 20:15:23 145.980
AAUSAT CUBESAT 2 26 Sep 20:09:14 20:12:44 27° 69° (ENE) 20:16:14 437.432
XW-2C 26 Sep 20:17:56 20:19:31 12° 270° (W) 20:21:06 145.795 - 145.815
STARS 26 Sep 20:18:18 20:22:14 33° 292° (WNW) 20:26:10 437.465
STRAND 1 26 Sep 20:22:45 20:26:56 25° 94° (E) 20:31:07 437.568
Oscar 11 26 Sep 20:30:58 20:34:05 19° 66° (ENE) 20:37:12 .
CUTE 1.7 + AOD 2 26 Sep 20:31:22 20:35:30 46° 262° (W) 20:39:38 437.475
AO-73 26 Sep 20:35:10 20:38:58 30° 68° (ENE) 20:42:51 145.935
ZACube-1 26 Sep 20:39:55 20:43:57 37° 70° (ENE) 20:48:05 437.345
Tancredo 1 26 Sep 20:46:25 20:48:36 22° 340° (NNW) 20:50:47 437.200
BEESAT 3 26 Sep 20:54:11 20:57:49 32° 312° (NW) 21:01:27 437.485
XW-2A 26 Sep 20:55:38 20:58:57 48° 260° (W) 21:02:18 145.665 - 145.685
BEESAT 2 26 Sep 21:09:16 21:13:15 65° 305° (NW) 21:17:18 435.950
ISS 26 Sep 21:09:32 21:12:47 79° 326° (NW) 21:16:05 437.550
NO-84 26 Sep 21:20:08 21:21:13 12° 235° (SW) 21:22:17 435.350 FM
Max Valier Satellite 26 Sep 21:26:59 21:27:59 11° 63° (ENE) 21:28:59 145.860
SO-50 26 Sep 21:33:20 21:36:22 17° 39° (NE) 21:39:25 436.795
SEEDS 26 Sep 21:33:45 21:36:28 17° 268° (W) 21:39:11 437.485
UWE-3 26 Sep 21:36:53 21:40:41 30° 265° (W) 21:44:37 435.000/436.395/437.385
CUBEBUG 2 26 Sep 21:38:42 21:41:34 17° 269° (W) 21:44:30 437.445
nSIGHT-1 26 Sep 21:42:21 21:45:25 39° 334° (NNW) 21:48:30 .
AAUSAT CUBESAT 2 26 Sep 21:44:38 21:48:07 26° 265° (W) 21:51:37 437.432
HO-68 26 Sep 21:47:34 21:52:09 18° 270° (W) 21:56:47 435.675
AO-85 26 Sep 21:48:58 21:52:21 28° 313° (NW) 21:55:49 145.980
YUBILEINY 26 Sep 21:56:50 21:59:20 11° 53° (NE) 22:01:51 435.215
STRAND 1 26 Sep 22:01:26 22:06:16 42° 291° (WNW) 22:11:04 437.568
Oscar 11 26 Sep 22:05:48 22:09:55 41° 262° (W) 22:14:04 .
AO-73 26 Sep 22:11:28 22:15:09 26° 266° (W) 22:18:56 145.935
ZACube-1 26 Sep 22:17:00 22:20:20 21° 267° (W) 22:23:44 437.345
EO-88 26 Sep 22:17:01 22:20:16 30° 71° (ENE) 22:23:31 145.990 - 145.960
PCSat 26 Sep 22:20:02 22:23:08 15° 38° (NE) 22:26:13 145.827
Tancredo 1 26 Sep 22:22:31 22:23:43 12° 359° (N) 22:24:55 437.200
UNISAT 6 26 Sep 22:29:36 22:32:20 15° 91° (E) 22:35:04 437.425
DELFI C3 26 Sep 22:39:12 22:43:08 74° 258° (WSW) 22:47:05 145.870
ISS 26 Sep 22:47:04 22:49:40 21° 346° (NNW) 22:52:17 437.550
FO-29 26 Sep 22:47:14 22:52:49 67° 102° (ESE) 22:59:06 435.910
BEESAT 2 26 Sep 22:50:56 22:51:48 11° 325° (NW) 22:52:39 435.950
TIGRISAT 26 Sep 22:51:25 22:55:11 23° 94° (E) 22:58:56 435.000
Max Valier Satellite 26 Sep 22:57:38 23:01:18 58° 260° (W) 23:05:00 145.860
LO-87 26 Sep 23:03:01 23:04:55 14° 66° (ENE) 23:06:50 145.935 - 145.965
ESTCUBE 1 26 Sep 23:12:01 23:14:56 17° 63° (ENE) 23:17:52 437.505/2401.250
SO-50 26 Sep 23:12:47 23:17:23 80° 239° (WSW) 23:22:02 436.795
nSIGHT-1 26 Sep 23:20:08 23:22:23 17° 354° (N) 23:24:38 .
YUBILEINY 26 Sep 23:49:49 23:58:25 57° 77° (ENE) 00:06:59 435.215
EO-88 26 Sep 23:51:27 23:53:58 17° 267° (W) 23:56:29 145.990 - 145.960
PRISM 26 Sep 23:55:21 23:59:21 56° 101° (E) 00:03:21 437.425
Tancredo 1 26 Sep 23:56:46 23:58:51 20° 19° (NNE) 00:00:56 437.200
PCSat 27 Sep 00:02:03 00:07:30 74° 59° (ENE) 00:12:54 145.827
UNISAT 6 27 Sep 00:04:45 00:09:22 58° 287° (WNW) 00:13:59 437.425
AIST 2D 27 Sep 00:06:58 00:09:03 15° 92° (E) 00:11:08 435.315
ISS 27 Sep 00:24:41 00:27:00 17° 6° (N) 00:29:19 437.550
TIGRISAT 27 Sep 00:27:37 00:31:57 38° 290° (WNW) 00:36:16 435.000
QB50P2 27 Sep 00:28:55 00:31:00 13° 90° (E) 00:33:04 145.880/145.840
SPROUT 27 Sep 00:31:09 00:34:41 26° 68° (ENE) 00:38:15 437.525
FO-29 27 Sep 00:33:42 00:37:31 19° 298° (WNW) 00:41:36 435.910
LO-87 27 Sep 00:34:43 00:38:00 37° 262° (W) 00:41:20 145.935 - 145.965
ESTCUBE 1 27 Sep 00:46:54 00:51:19 52° 260° (W) 00:55:46 437.505/2401.250
nSIGHT-1 27 Sep 00:57:00 00:59:34 21° 14° (NNE) 01:02:06 .
NANOSAT C BR1 27 Sep 00:59:24 01:02:49 23° 94° (E) 01:06:14 145.865
VELOX 1 27 Sep 00:59:42 01:03:48 40° 71° (ENE) 01:07:55 145.980
50 SAT 27 Sep 01:14:41 01:16:33 14° 66° (ENE) 01:18:26 437.505
DUCHIFAT 1 27 Sep 01:25:17 01:29:18 38° 98° (E) 01:33:16 145.980
Tancredo 1 27 Sep 01:30:49 01:33:27 61° 217° (SW) 01:36:04 437.200
PRISM 27 Sep 01:32:15 01:34:09 13° 297° (WNW) 01:36:04 437.425
AIST 2D 27 Sep 01:39:11 01:42:20 31° 288° (WNW) 01:45:28 435.315
UKube-1 27 Sep 01:42:40 01:45:53 21° 65° (ENE) 01:49:06 .
POLYITAN 1 27 Sep 01:44:37 01:48:57 83° 105° (ESE) 01:53:14 437.675
BUGSAT 1 27 Sep 01:46:26 01:49:19 18° 93° (E) 01:52:13 437.445
PCSat 27 Sep 01:47:04 01:50:14 16° 256° (WSW) 01:53:23 145.827
YUBILEINY 27 Sep 01:47:20 01:54:42 32° 277° (W) 02:02:07 435.215
EO-79 27 Sep 01:47:48 01:52:07 89° 124° (SE) 01:56:24 145.935-145.965
DX 1 27 Sep 01:56:27 02:00:33 43° 71° (ENE) 02:04:40 434.975-435.025
ISS 27 Sep 02:00:59 02:04:07 39° 26° (NNE) 02:07:15 437.550
QB50P2 27 Sep 02:02:55 02:07:07 56° 287° (WNW) 02:11:18 145.880/145.840
SPROUT 27 Sep 02:06:52 02:10:30 27° 264° (W) 02:14:09 437.525
nSIGHT-1 27 Sep 02:33:02 02:36:17 76° 33° (NNE) 02:39:32 .
NANOSAT C BR1 27 Sep 02:34:45 02:38:32 32° 291° (WNW) 02:42:19 145.865
VELOX 1 27 Sep 02:37:15 02:40:24 19° 267° (W) 02:43:33 145.980
M-CUBED/EXP-1 PRIME 27 Sep 02:44:16 02:47:33 66° 108° (ESE) 02:50:46 437.505
50 SAT 27 Sep 02:45:49 02:48:46 30° 262° (W) 02:51:44 437.505
O/OREOS (USA 219) 27 Sep 02:50:20 02:54:50 78° 110° (ESE) 02:59:23 437.305
Oscar 19 27 Sep 02:53:46 02:58:41 43° 98° (E) 03:03:33 437.125/150
DUCHIFAT 1 27 Sep 03:01:36 03:04:41 20° 294° (WNW) 03:07:45 145.980
Gurwin Techsat 1B 27 Sep 03:08:59 03:14:01 41° 98° (E) 03:19:00 435.225
UKube-1 27 Sep 03:17:40 03:21:39 37° 262° (W) 03:25:40 .
BUGSAT 1 27 Sep 03:20:52 03:24:50 40° 289° (WNW) 03:28:49 437.445
POLYITAN 1 27 Sep 03:23:17 03:24:02 10° 300° (WNW) 03:24:47 437.675
ITUPSAT 1 27 Sep 03:25:49 03:30:03 32° 68° (ENE) 03:34:18 437.325
RS-15 27 Sep 03:27:57 03:31:08 11° 92° (E) 03:34:19 29.354- 29.394
BEESAT 3 27 Sep 03:32:45 03:35:54 22° 44° (NE) 03:39:00 437.485
DX 1 27 Sep 03:34:04 03:36:56 17° 267° (W) 03:39:49 434.975-435.025
ISS 27 Sep 03:37:36 03:40:31 29° 223° (SW) 03:43:25 437.550
BEESAT 2 27 Sep 03:49:53 03:51:51 13° 38° (NE) 03:53:50 435.950
MOZHAYETS 4 27 Sep 03:56:53 04:01:27 64° 74° (ENE) 04:06:03
BEESAT 27 Sep 03:59:14 04:03:58 70° 74° (ENE) 04:08:44 436.000
ITAMSAT 1 27 Sep 04:08:33 04:11:17 14° 90° (E) 04:14:01 435.822/435.867
nSIGHT-1 27 Sep 04:10:35 04:12:13 13° 229° (SW) 04:13:49 .
AO-7 27 Sep 04:31:15 04:38:42 35° 97° (E) 04:46:05 .
O/OREOS (USA 219) 27 Sep 04:32:35 04:34:50 13° 310° (NW) 04:37:06 437.305
Oscar 19 27 Sep 04:33:37 04:37:44 25° 296° (WNW) 04:41:51 437.125/150
CUBESAT XI-V 27 Sep 04:33:56 04:38:09 34° 69° (ENE) 04:42:22 437.345
AO-85 27 Sep 04:37:48 04:41:52 34° 49° (NE) 04:46:10 145.980
Gurwin Techsat 1B 27 Sep 04:49:20 04:53:45 27° 295° (WNW) 04:58:08 435.225
ITUPSAT 1 27 Sep 05:03:45 05:07:51 28° 264° (W) 05:11:59 437.325
BEESAT 3 27 Sep 05:09:52 05:13:36 40° 243° (WSW) 05:17:16 437.485
KKS-1 27 Sep 05:25:44 05:29:51 40° 71° (ENE) 05:34:00 437.445
BEESAT 2 27 Sep 05:26:08 05:30:12 90° 272° (W) 05:34:12 435.950
RS-15 27 Sep 05:28:55 05:40:44 58° 113° (ESE) 05:52:38 29.354- 29.394
MOZHAYETS 4 27 Sep 05:36:47 05:39:01 13° 270° (W) 05:41:17
STARS 27 Sep 05:39:36 05:43:04 24° 66° (ENE) 05:46:33 437.465
BEESAT 27 Sep 05:40:08 05:42:13 13° 270° (W) 05:44:20 436.000
ITAMSAT 1 27 Sep 05:46:03 05:51:16 73° 287° (WNW) 05:56:28 435.822/435.867
DOVE 4 27 Sep 06:00:07 06:02:56 17° 93° (E) 06:05:49 437.250
CUBESAT XI-V 27 Sep 06:11:38 06:15:32 26° 265° (W) 06:19:27 437.345
AO-85 27 Sep 06:18:15 06:22:12 30° 245° (WSW) 06:26:25 145.980
AO-7 27 Sep 06:23:43 06:31:42 54° 296° (WNW) 06:39:40 .
KKS-1 27 Sep 07:03:24 07:06:34 19° 267° (W) 07:09:45 437.445
XW-2D 27 Sep 07:13:20 07:16:34 26° 95° (E) 07:19:45 145.860 - 145.880
STARS 27 Sep 07:15:19 07:19:14 32° 263° (W) 07:23:11 437.465
XW-2F 27 Sep 07:22:24 07:25:46 30° 96° (E) 07:29:05 145.980 - 146.000
XW-2B 27 Sep 07:25:37 07:29:07 34° 97° (E) 07:32:36 145.730 - 145.750
HO-68 27 Sep 07:25:43 07:29:24 15° 88° (E) 07:33:06 435.675
ITAMSAT 1 27 Sep 07:28:57 07:29:48 10° 305° (NW) 07:30:39 435.822/435.867
NUDT-PHONESAT 27 Sep 07:32:14 07:35:32 29° 96° (E) 07:38:48 437.300
DOVE 4 27 Sep 07:36:42 07:40:49 45° 287° (WNW) 07:45:07 437.250
STRAND 1 27 Sep 07:39:08 07:43:48 38° 68° (ENE) 07:48:30 437.568
RS-15 27 Sep 07:41:40 07:53:34 51° 317° (NW) 08:05:28 29.354- 29.394
XW-2C 27 Sep 07:47:01 07:50:49 67° 101° (E) 07:54:34 145.795 - 145.815
CUTE-I 27 Sep 08:02:37 08:07:58 69° 102° (ESE) 08:13:17 437.470
LilacSat-2 27 Sep 08:04:15 08:08:04 69° 284° (WNW) 08:11:50 437.200
KAITUO 1B 27 Sep 08:06:59 08:10:44 87° 104° (ESE) 08:14:27 145.475/437.950
CUTE 1.7 + AOD 2 27 Sep 08:15:38 08:19:15 27° 95° (E) 08:22:50 437.475
AO-7 27 Sep 08:19:07 08:22:38 13° 318° (NW) 08:26:10 .
XW-2D 27 Sep 08:47:38 08:50:36 22° 292° (WNW) 08:53:33 145.860 - 145.880
XW-2F 27 Sep 08:56:57 08:59:40 19° 293° (WNW) 09:02:23 145.980 - 146.000
XW-2B 27 Sep 09:00:31 09:03:01 17° 294° (WNW) 09:05:32 145.730 - 145.750
FO-29 27 Sep 09:01:47 09:06:21 28° 66° (ENE) 09:10:44 435.910
NUDT-PHONESAT 27 Sep 09:06:32 09:09:12 19° 293° (WNW) 09:11:51 437.300
